QPF
0.00 0.00 0.00 0.00 0.00 0.00 0.00 0.00 0.00 0.00 0.00 0.00 0.00 0.00 0.00 0.00 0.00 0.00 0.00 0.00 0.00 0.00 0.01 0.02 0.01 0.00 0.01 0.00 0.01 0.00 0.00 0.00 0.00 0.00 0.00 0.00 0.00 0.00 0.00 0.00 0.00 0.00 0.00 0.00
0.00 0.00 0.00 0.00 0.00 0.00 0.00 0.00 0.00 0.00 0.00 0.00 0.00 0.00 0.00 0.00 0.00 0.00 0.00 0.00 0.00 0.00 0.00 0.01 0.04 0.08 0.06 0.03 0.01 0.00 0.01 0.00 0.00 0.00 0.00 0.00 0.00 0.00 0.00 0.00 0.00 0.00 0.00 0.00
0.00 0.00 0.00 0.00 0.00 0.00 0.00 0.00 0.00 0.00 0.00 0.00 0.00 0.00 0.00 0.00 0.00 0.00 0.00 0.00 0.00 0.00 0.00 0.00 0.02 0.01 0.01 0.00 0.00 0.00 0.00 0.00 0.00 0.00 0.00 0.00 0.00 0.00 0.00 0.00 0.00 0.00 0.00 0.00
0.00 0.00 0.00 0.00 0.00 0.00 0.00 0.00 0.00 0.00 0.00 0.00 0.01 0.01 0.03 0.02 0.00 0.00 0.00 0.00 0.00 0.00 0.00 0.00 0.00 0.00 0.00 0.00 0.00 0.00 0.00 0.00 0.00 0.00 0.00 0.00 0.00 0.00 0.00 0.00 0.00 0.00 0.00 0.00
0.00 0.00 0.00 0.00 0.00 0.00 0.00 0.00 0.00 0.00 0.00 0.00 0.00 0.01 0.08 0.04 0.01 0.00 0.00 0.00 0.00 0.00 0.00 0.00 0.00 0.00 0.00 0.00 0.00 0.00 0.00 0.00 0.00 0.00 0.00 0.00 0.00 0.00 0.00 0.00 0.00 0.00 0.00 0.00
0.00 0.00 0.00 0.00 0.00 0.00 0.00 0.00 0.00 0.00 0.00 0.02 0.01 0.00 0.02 0.01 0.01 0.00 0.00 0.00 0.00 0.00 0.00 0.00 0.00 0.00 0.00 0.00 0.00 0.00 0.00 0.00 0.00 0.00 0.00 0.00 0.00 0.00 0.00 0.00 0.00 0.00 0.00 0.00
0.00 0.00 0.00 0.00 0.00 0.00 0.00 0.00 0.00 0.00 0.03 0.07 0.05 0.06 0.03 0.00 0.00 0.00 0.00 0.00 0.00 0.00 0.00 0.00 0.00 0.00 0.00 0.00 0.00 0.00 0.00 0.00 0.00 0.00 0.00 0.00 0.00 0.00 0.00 0.00 0.00 0.00 0.00 0.00
0.00 0.00 0.00 0.00 0.00 0.00 0.00 0.00 0.00 0.00 0.01 0.02 0.01 0.05 0.02 0.00 0.00 0.00 0.00 0.00 0.00 0.00 0.00 0.00 0.00 0.00 0.00 0.00 0.00 0.00 0.00 0.00 0.00 0.00 0.00 0.00 0.00 0.00 0.00 0.00 0.00 0.00 0.00 0.00
0.00 0.00 0.00 0.00 0.00 0.00 0.00 0.00 0.00 0.00 0.00 0.00 0.01 0.03 0.00 0.00 0.00 0.00 0.00 0.00 0.00 0.00 0.00 0.00 0.00 0.00 0.00 0.00 0.00 0.00 0.00 0.00 0.00 0.00 0.00 0.00 0.00 0.00 0.00 0.00 0.00 0.00 0.00 0.00
0.00 0.00 0.00 0.00 0.00 0.00 0.00 0.00 0.00 0.00 0.00 0.00 0.01 0.02 0.00 0.00 0.00 0.00 0.00 0.00 0.00 0.00 0.00 0.00 0.00 0.00 0.00 0.00 0.00 0.00 0.00 0.00 0.00 0.00 0.00 0.00 0.00 0.00 0.00 0.00 0.00 0.00 0.00 0.00
0.00 0.00 0.00 0.00 0.00 0.00 0.00 0.00 0.00 0.00 0.00 0.00 0.00 0.00 0.00 0.00 0.00 0.00 0.00 0.00 0.00 0.00 0.00 0.00 0.00 0.00 0.00 0.00 0.00 0.00 0.00 0.00 0.00 0.00 0.00 0.00 0.00 0.00 0.00 0.00 0.00 0.00 0.00 0.00
0.00 0.00 0.00 0.00 0.00 0.00 0.00 0.00 0.00 0.00 0.00 0.00 0.00 0.00 0.00 0.00 0.00 0.00 0.00 0.00 0.00 0.00 0.00 0.00 0.00 0.00 0.00 0.00 0.00 0.00 0.00 0.00 0.00 0.00 0.00 0.00 0.00 0.00 0.00 0.00 0.00 0.00 0.00 0.00
0.00 0.00 0.00 0.00 0.00 0.00 0.00 0.00 0.00 0.00 0.00 0.00 0.00 0.00 0.00 0.00 0.00 0.00 0.00 0.00 0.00 0.00 0.00 0.00 0.00 0.00 0.00 0.00 0.00 0.00 0.00 0.00 0.00 0.00 0.00 0.00 0.00 0.00 0.00 0.00 0.00 0.00 0.00 0.00
0.00 0.00 0.00 0.00 0.00 0.00 0.00 0.00 0.00 0.00 0.00 0.00 0.00 0.00 0.00 0.00 0.00 0.00 0.00 0.00 0.00 0.00 0.00 0.00 0.00 0.00 0.00 0.00 0.00 0.00 0.00 0.00 0.00 0.00 0.00 0.00 0.00 0.00 0.00 0.00 0.00 0.00 0.01 0.01
0.00 0.00 0.00 0.00 0.00 0.00 0.00 0.00 0.00 0.00 0.00 0.00 0.00 0.00 0.00 0.00 0.00 0.00 0.00 0.00 0.00 0.00 0.00 0.00 0.00 0.00 0.00 0.00 0.00 0.00 0.00 0.00 0.00 0.00 0.00 0.00 0.00 0.00 0.00 0.00 0.00 0.01 0.00 0.00
0.00 0.00 0.00 0.01 0.00 0.00 0.00 0.00 0.00 0.00 0.00 0.00 0.00 0.00 0.00 0.00 0.00 0.00 0.00 0.00 0.00 0.00 0.00 0.00 0.00 0.00 0.00 0.00 0.00 0.00 0.00 0.00 0.00 0.00 0.00 0.00 0.00 0.00 0.00 0.01 0.00 0.00 0.00 0.00
0.00 0.00 0.00 0.03 0.01 0.00 0.01 0.00 0.00 0.00 0.00 0.00 0.00 0.00 0.00 0.00 0.00 0.00 0.00 0.00 0.00 0.00 0.00 0.00 0.00 0.00 0.00 0.00 0.00 0.00 0.00 0.00 0.00 0.00 0.00 0.00 0.00 0.00 0.00 0.02 0.00 0.00 0.00 0.00
0.02 0.06 0.03 0.02 0.05 0.01 0.01 0.00 0.00 0.00 0.00 0.00 0.00 0.00 0.00 0.00 0.00 0.00 0.00 0.00 0.00 0.00 0.00 0.00 0.00 0.00 0.00 0.00 0.00 0.00 0.00 0.00 0.00 0.00 0.00 0.00 0.00 0.00 0.00 0.01 0.00 0.00 0.00 0.00
0.01 0.05 0.06 0.06 0.08 0.03 0.01 0.00 0.00 0.00 0.00 0.00 0.00 0.00 0.00 0.00 0.00 0.00 0.00 0.00 0.00 0.00 0.00 0.00 0.00 0.00 0.00 0.00 0.00 0.00 0.00 0.00 0.00 0.00 0.00 0.00 0.00 0.00 0.00 0.01 0.01 0.00 0.00 0.00
0.02 0.02 0.18 0.01 0.01 0.04 0.01 0.00 0.00 0.00 0.00 0.00 0.00 0.00 0.00 0.00 0.00 0.00 0.00 0.00 0.00 0.00 0.00 0.00 0.00 0.00 0.00 0.00 0.00 0.00 0.00 0.00 0.00 0.00 0.00 0.00 0.00 0.00 0.00 0.00 0.00 0.00 0.00 0.01
0.04 0.17 0.07 0.00 0.01 0.02 0.00 0.00 0.00 0.00 0.00 0.00 0.00 0.00 0.00 0.00 0.00 0.00 0.00 0.00 0.00 0.00 0.00 0.00 0.00 0.00 0.00 0.00 0.00 0.00 0.00 0.00 0.00 0.00 0.00 0.00 0.00 0.00 0.00 0.00 0.00 0.02 0.01 0.01
0.05 0.04 0.00 0.01 0.00 0.00 0.00 0.00 0.00 0.00 0.00 0.00 0.00 0.00 0.00 0.00 0.00 0.00 0.00 0.00 0.00 0.00 0.00 0.00 0.00 0.00 0.00 0.00 0.00 0.00 0.00 0.00 0.00 0.00 0.00 0.00 0.00 0.00 0.00 0.00 0.01 0.02 0.01 0.01
0.01 0.01 0.01 0.01 0.00 0.00 0.00 0.00 0.00 0.00 0.00 0.00 0.00 0.00 0.00 0.00 0.00 0.00 0.00 0.00 0.00 0.00 0.00 0.00 0.00 0.00 0.00 0.00 0.00 0.00 0.00 0.00 0.01 0.00 0.00 0.00 0.00 0.00 0.00 0.00 0.01 0.01 0.02 0.02
0.01 0.01 0.01 0.01 0.00 0.00 0.00 0.00 0.00 0.00 0.00 0.00 0.00 0.00 0.00 0.00 0.00 0.00 0.00 0.00 0.00 0.00 0.00 0.00 0.00 0.00 0.00 0.00 0.00 0.00 0.01 0.02 0.03 0.00 0.00 0.00 0.00 0.01 0.00 0.00 0.00 0.01 0.01 0.02
0.01 0.00 0.00 0.00 0.00 0.00 0.00 0.00 0.00 0.00 0.00 0.00 0.00 0.00 0.00 0.00 0.00 0.00 0.00 0.00 0.00 0.00 0.00 0.00 0.00 0.00 0.00 0.00 0.00 0.00 0.02 0.04 0.05 0.03 0.00 0.00 0.00 0.00 0.00 0.00 0.00 0.00 0.01 0.01
0.00 0.00 0.00 0.00 0.00 0.00 0.00 0.00 0.00 0.00 0.00 0.00 0.00 0.00 0.00 0.00 0.00 0.00 0.00 0.00 0.00 0.00 0.00 0.00 0.00 0.00 0.00 0.00 0.00 0.00 0.00 0.03 0.05 0.06 0.03 0.01 0.00 0.00 0.00 0.00 0.00 0.00 0.00 0.01
MSLP
1010.79 1012.07 1012.68 1012.84 1012.96 1013.36 1013.96 1014.59 1015.73 1016.48 1016.82 1017.73 1019.64 1019.95 1020.70 1020.74 1020.76 1021.35 1021.84 1021.83 1021.87 1021.78 1021.92 1021.57 1021.92 1021.85 1021.45 1021.57 1022.10 1021.71 1021.46 1021.31 1021.04 1020.85 1020.88 1020.65 1020.38 1019.97 1019.78 1019.60 1019.50 1019.55 1019.56 1020.19
1012.09 1013.01 1013.19 1013.29 1013.57 1013.91 1014.54 1015.46 1016.69 1017.41 1017.89 1018.81 1020.34 1021.27 1021.49 1021.75 1021.79 1021.78 1022.16 1022.30 1022.22 1022.07 1022.01 1021.80 1021.73 1022.15 1022.25 1021.92 1021.50 1021.11 1020.66 1020.64 1020.40 1020.53 1020.39 1020.21 1019.86 1019.52 1019.16 1018.93 1018.90 1018.94 1019.11 1019.37
1012.81 1013.93 1013.56 1013.85 1014.31 1014.65 1015.00 1015.82 1016.78 1017.61 1018.62 1019.57 1019.83 1021.98 1022.64 1022.49 1022.42 1022.07 1021.80 1021.56 1021.84 1021.98 1021.76 1021.66 1021.79 1021.95 1021.77 1021.48 1021.14 1020.77 1020.34 1020.22 1020.22 1020.14 1020.09 1019.96 1019.71 1019.48 1019.57 1019.28 1019.04 1018.86 1018.93 1018.87
1013.85 1014.34 1014.35 1014.62 1014.99 1015.31 1015.42 1015.68 1016.41 1017.54 1018.73 1020.13 1020.67 1023.31 1024.07 1023.65 1022.82 1022.13 1021.68 1021.74 1021.72 1021.69 1021.49 1021.50 1021.52 1021.39 1021.41 1021.00 1020.91 1020.71 1020.49 1020.27 1020.04 1019.75 1019.69 1019.73 1019.71 1019.69 1019.30 1019.06 1018.87 1018.78 1018.56 1018.47
1014.97 1015.08 1015.05 1015.25 1015.67 1015.42 1015.78 1015.92 1016.37 1017.31 1018.78 1020.33 1021.90 1023.10 1024.30 1023.42 1022.90 1022.27 1021.84 1021.65 1021.76 1021.62 1021.50 1021.15 1020.93 1021.05 1020.95 1020.76 1020.54 1020.18 1020.05 1019.93 1019.68 1019.41 1019.34 1019.47 1019.52 1019.32 1018.86 1018.72 1018.60 1018.44 1018.28 1018.26
1015.40 1015.40 1015.54 1015.83 1015.71 1015.76 1015.82 1016.36 1017.17 1018.13 1019.53 1022.22 1023.36 1023.24 1024.27 1023.38 1022.77 1022.07 1021.80 1021.58 1021.41 1021.08 1021.09 1020.86 1020.88 1020.76 1020.73 1020.65 1020.55 1020.33 1020.08 1019.67 1019.32 1019.16 1018.96 1018.96 1018.94 1018.78 1018.74 1018.50 1018.41 1018.09 1017.83 1018.07
1016.38 1016.41 1016.18 1016.03 1016.00 1016.18 1016.79 1017.76 1019.24 1020.42 1021.89 1023.66 1024.15 1024.09 1024.11 1023.08 1022.34 1021.71 1021.79 1021.81 1021.73 1021.69 1021.49 1021.34 1021.04 1020.90 1020.78 1020.61 1020.41 1020.24 1020.03 1019.72 1019.32 1019.16 1019.00 1018.94 1018.90 1018.84 1018.96 1018.79 1018.56 1018.46 1018.21 1017.89
1017.61 1017.47 1016.90 1016.61 1017.00 1017.48 1017.97 1018.91 1020.64 1022.04 1023.66 1024.68 1024.44 1024.91 1024.51 1023.19 1022.48 1021.99 1022.00 1022.08 1021.84 1021.54 1021.35 1021.25 1020.98 1020.88 1020.81 1020.57 1020.44 1020.23 1019.95 1019.63 1019.22 1019.09 1019.06 1018.98 1018.91 1018.88 1018.74 1018.56 1018.43 1018.34 1018.21 1018.04
1018.45 1018.16 1017.38 1017.51 1017.82 1018.18 1018.90 1020.01 1021.05 1022.67 1024.56 1025.61 1025.96 1025.79 1024.49 1023.27 1022.67 1022.39 1022.20 1021.86 1021.65 1021.30 1021.22 1021.25 1021.05 1020.93 1020.91 1020.72 1020.39 1020.08 1019.77 1019.39 1019.17 1019.20 1019.11 1018.93 1018.83 1018.69 1018.58 1018.44 1018.29 1018.11 1017.94 1017.77
1018.99 1018.95 1018.23 1018.31 1018.63 1019.32 1019.95 1021.39 1022.30 1024.01 1026.05 1027.11 1027.12 1026.46 1025.26 1023.98 1023.22 1022.76 1022.36 1021.99 1021.59 1021.49 1021.40 1021.36 1021.21 1021.06 1020.78 1020.46 1020.17 1019.90 1019.55 1019.28 1019.30 1019.19 1018.96 1018.81 1018.74 1018.63 1018.49 1018.32 1018.16 1017.89 1017.62 1017.39
1018.85 1019.44 1019.94 1019.60 1021.10 1021.47 1021.57 1022.62 1024.04 1025.26 1026.80 1027.56 1027.64 1026.87 1024.96 1023.95 1023.26 1022.68 1022.13 1021.69 1021.71 1021.59 1021.58 1021.55 1021.24 1020.97 1020.62 1020.22 1019.99 1019.64 1019.45 1019.51 1019.51 1019.21 1019.08 1019.01 1018.94 1018.71 1018.38 1018.08 1017.78 1017.50 1017.21 1016.95
1019.66 1020.26 1021.41 1022.21 1022.37 1022.16 1022.61 1023.93 1025.05 1026.31 1027.52 1027.63 1027.41 1026.46 1024.39 1023.60 1022.85 1022.28 1022.24 1022.01 1021.82 1021.72 1021.64 1021.46 1021.14 1020.82 1020.51 1020.22 1019.80 1019.62 1019.70 1019.82 1019.62 1019.30 1019.14 1019.01 1018.81 1018.47 1018.07 1017.78 1017.49 1017.15 1016.82 1016.47
1020.18 1020.94 1022.47 1023.48 1023.21 1022.94 1023.49 1024.40 1025.35 1026.31 1027.04 1027.90 1027.86 1026.38 1024.09 1023.24 1022.94 1022.62 1022.53 1022.32 1022.17 1021.82 1021.50 1021.32 1020.94 1020.64 1020.49 1020.16 1019.72 1019.76 1019.88 1019.79 1019.42 1019.16 1019.00 1018.77 1018.44 1018.16 1017.91 1017.55 1017.17 1016.77 1016.41 1015.95
1020.40 1021.72 1022.18 1023.22 1023.76 1024.28 1024.85 1024.97 1025.17 1025.68 1026.83 1027.56 1027.11 1025.68 1024.15 1023.51 1023.10 1022.79 1022.66 1022.40 1022.13 1021.77 1021.47 1021.23 1020.84 1020.63 1020.45 1020.03 1019.75 1019.94 1019.97 1019.78 1019.35 1019.10 1018.90 1018.67 1018.42 1018.12 1017.74 1017.32 1016.90 1016.48 1016.03 1015.67
1021.13 1023.18 1023.13 1024.27 1024.63 1024.97 1025.88 1026.09 1025.96 1026.23 1026.63 1026.84 1026.35 1025.30 1024.07 1023.28 1023.12 1022.87 1022.64 1022.34 1022.07 1021.72 1021.34 1021.07 1020.83 1020.70 1020.44 1020.14 1020.00 1020.15 1020.13 1019.77 1019.47 1019.20 1018.99 1018.80 1018.43 1017.99 1017.53 1017.10 1016.68 1016.24 1015.90 1015.52
1021.58 1023.67 1024.05 1025.23 1025.48 1025.49 1026.52 1026.87 1026.38 1026.59 1026.83 1026.50 1025.95 1025.27 1024.20 1023.55 1023.12 1022.84 1022.66 1022.32 1022.02 1021.68 1021.40 1021.12 1020.94 1020.79 1020.62 1020.38 1020.31 1020.44 1020.29 1019.98 1019.72 1019.42 1019.21 1018.85 1018.37 1017.95 1017.39 1016.90 1016.60 1016.22 1015.89 1015.60
1022.46 1023.57 1024.42 1025.71 1026.02 1025.85 1027.24 1028.07 1027.93 1027.82 1027.65 1027.19 1026.72 1026.06 1024.70 1023.85 1023.31 1022.94 1022.58 1022.31 1022.04 1021.87 1021.57 1021.35 1021.22 1021.07 1020.88 1020.58 1020.74 1020.72 1020.47 1020.27 1019.84 1019.62 1019.27 1018.80 1018.25 1017.83 1017.32 1017.00 1016.65 1016.27 1016.02 1015.62
1023.27 1024.06 1024.77 1025.98 1026.51 1027.47 1028.31 1028.12 1028.11 1027.89 1027.66 1027.13 1026.50 1025.53 1024.68 1024.04 1023.39 1022.94 1022.50 1022.27 1022.21 1022.01 1021.75 1021.61 1021.44 1021.34 1021.00 1020.83 1020.88 1020.88 1020.68 1020.45 1020.14 1019.80 1019.44 1018.83 1018.38 1017.99 1017.44 1016.98 1016.73 1016.40 1016.11 1015.66
1024.07 1024.96 1025.63 1026.29 1027.09 1028.43 1028.02 1028.05 1027.96 1027.71 1027.64 1026.92 1026.29 1025.41 1024.81 1024.14 1023.51 1023.01 1022.58 1022.33 1022.24 1022.10 1021.88 1021.74 1021.65 1021.54 1021.09 1021.08 1021.13 1020.86 1020.72 1020.53 1020.33 1020.01 1019.69 1019.08 1018.68 1018.07 1017.51 1017.04 1016.74 1016.44 1016.25 1015.78
1025.62 1025.72 1026.44 1027.12 1027.56 1028.22 1028.19 1027.89 1027.80 1027.40 1027.56 1026.88 1026.14 1025.58 1024.87 1024.25 1023.89 1023.53 1022.83 1022.51 1022.38 1022.23 1022.04 1021.95 1021.81 1021.62 1021.36 1021.37 1021.22 1020.92 1020.73 1020.59 1020.48 1020.27 1019.88 1019.35 1018.94 1018.40 1017.90 1017.45 1016.90 1016.58 1016.40 1015.89
1027.44 1027.57 1027.89 1027.91 1028.14 1028.40 1028.11 1027.73 1027.55 1027.46 1027.80 1026.52 1026.01 1025.39 1024.83 1024.41 1023.98 1023.45 1022.98 1022.79 1022.61 1022.44 1022.28 1022.04 1022.00 1021.92 1021.64 1021.54 1021.40 1020.99 1020.82 1020.71 1020.66 1020.49 1020.18 1019.68 1019.21 1018.70 1018.18 1017.71 1017.18 1016.88 1016.73 1016.27
1028.83 1029.05 1028.94 1028.44 1028.52 1028.88 1027.92 1027.45 1027.49 1027.28 1026.71 1026.30 1025.60 1024.96 1024.56 1023.88 1023.48 1023.45 1023.31 1023.15 1022.93 1022.78 1022.53 1022.31 1022.36 1022.18 1021.85 1021.79 1021.63 1021.16 1020.84 1020.83 1020.86 1020.70 1020.40 1020.09 1019.61 1019.06 1018.61 1018.09 1017.70 1017.33 1017.10 1016.76
1029.62 1029.78 1029.22 1028.71 1028.82 1028.25 1027.82 1027.39 1026.93 1026.70 1026.30 1025.66 1025.34 1024.55 1024.12 1023.64 1023.71 1023.73 1023.64 1023.48 1023.29 1023.14 1022.90 1022.65 1022.65 1022.48 1022.17 1022.09 1021.95 1021.47 1021.10 1020.80 1021.05 1020.95 1020.71 1020.46 1020.13 1019.56 1019.10 1018.66 1018.24 1017.82 1017.53 1017.23
1029.91 1029.70 1029.27 1028.96 1028.90 1028.15 1027.50 1026.95 1026.60 1026.11 1025.73 1025.37 1024.80 1024.28 1023.59 1023.65 1023.78 1023.89 1023.82 1023.77 1023.56 1023.37 1023.19 1023.03 1022.93 1022.85 1022.62 1022.35 1022.21 1022.04 1021.53 1021.14 1021.30 1021.19 1021.07 1020.87 1020.61 1020.28 1019.79 1019.24 1018.91 1018.52 1018.11 1017.79
1030.60 1030.09 1029.75 1029.41 1028.77 1028.12 1027.39 1026.93 1026.45 1025.75 1025.14 1024.89 1024.22 1023.84 1023.47 1023.65 1024.01 1024.14 1024.17 1024.05 1023.83 1023.71 1023.54 1023.43 1023.39 1023.23 1022.95 1022.64 1022.46 1022.29 1021.96 1021.58 1021.55 1021.49 1021.46 1021.36 1021.11 1020.81 1020.49 1019.95 1019.48 1019.14 1018.73 1018.29
1030.77 1030.58 1030.29 1029.76 1029.34 1029.13 1027.89 1026.62 1025.98 1025.43 1024.89 1024.61 1024.51 1024.04 1024.08 1024.01 1024.31 1024.35 1024.48 1024.37 1024.22 1024.07 1023.97 1023.93 1023.82 1023.57 1023.27 1022.92 1022.63 1022.38 1022.34 1022.02 1021.88 1021.87 1021.83 1021.80 1021.62 1021.29 1021.05 1020.55 1020.06 1019.59 1019.33 1019.08
Thickness
5682 5655 5648 5659 5661 5657 5646 5632 5619 5615 5620 5601 5580 5577 5573 5578 5576 5568 5561 5558 5559 5555 5551 5549 5543 5538 5538 5533 5525 5525 5525 5524 5522 5520 5514 5512 5512 5510 5508 5505 5502 5498 5495 5488
5660 5645 5658 5661 5657 5649 5638 5623 5608 5604 5601 5589 5573 5564 5562 5563 5564 5561 5555 5549 5547 5544 5542 5541 5539 5531 5527 5527 5527 5526 5526 5521 5519 5512 5508 5505 5503 5503 5502 5500 5496 5491 5486 5482
5647 5648 5660 5654 5642 5635 5632 5619 5608 5597 5584 5580 5578 5553 5547 5551 5554 5558 5557 5553 5544 5539 5539 5538 5533 5527 5526 5525 5524 5522 5519 5515 5510 5506 5502 5499 5496 5494 5489 5487 5484 5480 5475 5472
5644 5649 5645 5637 5633 5629 5618 5629 5616 5599 5576 5554 5566 5531 5528 5533 5544 5551 5552 5546 5542 5540 5540 5537 5533 5528 5522 5522 5517 5513 5510 5507 5504 5501 5496 5490 5484 5479 5477 5475 5471 5468 5464 5460
5635 5633 5630 5627 5625 5631 5621 5623 5612 5600 5577 5556 5547 5531 5520 5536 5538 5545 5545 5544 5539 5537 5533 5533 5531 5524 5522 5520 5516 5512 5508 5502 5497 5491 5485 5478 5473 5468 5466 5462 5458 5455 5452 5447
5634 5641 5633 5628 5629 5629 5625 5611 5597 5586 5572 5535 5534 5534 5516 5531 5534 5543 5543 5541 5539 5539 5534 5530 5525 5521 5517 5512 5506 5502 5497 5493 5488 5483 5478 5470 5464 5460 5455 5451 5447 5445 5442 5435
5625 5621 5628 5627 5618 5619 5607 5587 5550 5553 5538 5537 5531 5530 5527 5538 5542 5544 5537 5534 5530 5521 5518 5518 5518 5514 5512 5507 5502 5497 5491 5485 5480 5474 5468 5462 5456 5450 5443 5438 5435 5429 5425 5421
5601 5597 5612 5622 5611 5603 5599 5584 5541 5551 5536 5526 5542 5522 5519 5534 5538 5538 5534 5526 5522 5521 5519 5517 5516 5511 5506 5502 5496 5489 5484 5479 5474 5467 5460 5453 5446 5439 5432 5426 5419 5413 5407 5402
5585 5594 5617 5611 5605 5600 5591 5571 5576 5555 5542 5525 5527 5520 5525 5535 5535 5532 5526 5525 5524 5524 5521 5518 5513 5507 5500 5494 5489 5483 5479 5475 5467 5459 5451 5445 5436 5427 5417 5409 5401 5395 5390 5386
5594 5583 5606 5604 5599 5588 5579 5571 5555 5530 5487 5522 5516 5512 5493 5524 5525 5524 5522 5523 5524 5524 5519 5514 5507 5501 5496 5491 5485 5479 5474 5470 5461 5452 5444 5436 5424 5413 5402 5393 5385 5378 5373 5369
5600 5579 5584 5588 5566 5559 5558 5547 5541 5539 5517 5466 5482 5490 5520 5523 5523 5526 5526 5529 5523 5522 5515 5508 5504 5499 5493 5489 5483 5478 5472 5462 5453 5443 5433 5421 5408 5397 5386 5377 5369 5363 5358 5354
5587 5573 5555 5558 5561 5564 5556 5539 5527 5496 5526 5519 5472 5476 5527 5527 5528 5530 5527 5525 5524 5520 5514 5507 5502 5498 5494 5487 5482 5475 5464 5454 5444 5434 5422 5408 5394 5382 5370 5360 5352 5346 5341 5337
5577 5562 5543 5546 5554 5555 5548 5543 5525 5514 5487 5473 5453 5482 5529 5532 5528 5528 5524 5521 5519 5516 5513 5508 5503 5498 5491 5485 5480 5471 5459 5448 5439 5427 5413 5398 5384 5371 5359 5348 5338 5330 5324 5321
5568 5550 5549 5532 5540 5536 5531 5536 5539 5529 5489 5488 5476 5513 5530 5527 5527 5525 5522 5520 5518 5516 5514 5509 5504 5496 5488 5483 5478 5466 5455 5443 5434 5420 5405 5389 5375 5364 5352 5340 5329 5318 5308 5301
5551 5526 5535 5530 5529 5526 5515 5516 5527 5526 5522 5507 5512 5522 5529 5528 5527 5526 5524 5523 5522 5519 5516 5511 5505 5494 5486 5483 5474 5462 5449 5439 5428 5414 5397 5380 5370 5359 5347 5333 5320 5309 5298 5286
5541 5518 5520 5511 5517 5520 5495 5506 5521 5519 5517 5522 5520 5519 5528 5530 5527 5525 5524 5525 5522 5519 5516 5512 5503 5494 5486 5479 5469 5457 5445 5434 5422 5407 5390 5377 5367 5355 5343 5328 5314 5302 5290 5281
5519 5508 5510 5505 5503 5519 5504 5491 5497 5505 5502 5504 5503 5513 5523 5525 5526 5528 5527 5524 5521 5518 5514 5509 5500 5490 5481 5474 5463 5453 5444 5431 5418 5402 5387 5374 5364 5352 5339 5324 5309 5297 5285 5277
5499 5497 5497 5497 5499 5470 5483 5494 5495 5500 5501 5505 5513 5518 5524 5526 5531 5531 5529 5525 5521 5517 5514 5506 5496 5487 5480 5472 5463 5454 5442 5428 5415 5400 5385 5373 5362 5348 5335 5321 5306 5293 5281 5274
5485 5484 5496 5501 5487 5483 5499 5498 5498 5502 5502 5509 5512 5521 5522 5526 5528 5527 5527 5527 5522 5517 5511 5504 5495 5486 5481 5473 5464 5455 5442 5428 5414 5401 5385 5373 5359 5347 5333 5319 5305 5291 5279 5271
5472 5480 5483 5484 5485 5488 5492 5499 5499 5505 5500 5515 5519 5520 5521 5524 5515 5520 5528 5527 5521 5516 5512 5505 5497 5489 5483 5473 5465 5457 5445 5432 5417 5402 5387 5372 5359 5346 5332 5317 5303 5290 5277 5268
5457 5472 5477 5455 5483 5485 5496 5502 5505 5503 5494 5516 5519 5523 5525 5523 5523 5528 5528 5525 5521 5517 5512 5507 5498 5492 5483 5473 5465 5459 5448 5435 5420 5403 5388 5374 5362 5349 5334 5318 5303 5288 5275 5265
5461 5468 5469 5480 5478 5477 5502 5509 5508 5512 5516 5518 5523 5527 5527 5531 5532 5530 5527 5524 5520 5516 5513 5508 5499 5493 5485 5476 5466 5461 5452 5438 5422 5407 5394 5379 5366 5354 5339 5323 5307 5291 5277 5267
5478 5469 5485 5494 5491 5499 5504 5510 5516 5518 5520 5524 5526 5532 5533 5535 5531 5528 5525 5522 5520 5516 5513 5508 5500 5493 5487 5478 5468 5462 5454 5443 5427 5413 5401 5387 5372 5361 5347 5332 5315 5300 5287 5274
5479 5479 5491 5494 5494 5503 5511 5517 5521 5525 5527 5529 5534 5535 5540 5536 5531 5528 5525 5521 5520 5517 5514 5509 5502 5495 5488 5481 5470 5462 5456 5447 5433 5421 5408 5395 5381 5369 5358 5346 5329 5314 5302 5290
5478 5482 5489 5496 5505 5510 5517 5520 5523 5529 5533 5534 5539 5540 5543 5537 5532 5528 5524 5522 5520 5518 5514 5508 5502 5496 5491 5484 5475 5467 5458 5451 5440 5429 5417 5404 5392 5380 5370 5359 5348 5334 5322 5311
5481 5483 5488 5497 5499 5495 5509 5524 5528 5531 5535 5538 5537 5540 5537 5535 5531 5527 5522 5521 5519 5516 5512 5507 5502 5498 5493 5488 5481 5474 5464 5455 5447 5436 5426 5414 5403 5392 5382 5374 5365 5356 5345 5334